Year,Month,Day,Hour,Minute,Value (Times are PST for temperature in C)
2015,07,20,00,00,19.90
2015,07,20,00,01,19.90
2015,07,20,00,02,19.90
2015,07,20,00,03,19.90
2015,07,20,00,04,19.90
2015,07,20,00,05,19.90
2015,07,20,00,06,19.90
2015,07,20,00,07,19.80
2015,07,20,00,08,19.80
2015,07,20,00,09,19.80
2015,07,20,00,10,19.80
2015,07,20,00,11,19.80
2015,07,20,00,12,19.80
2015,07,20,00,13,19.80
2015,07,20,00,14,19.80
2015,07,20,00,15,19.90
2015,07,20,00,16,19.90
2015,07,20,00,17,19.90
2015,07,20,00,18,19.90
2015,07,20,00,19,19.80
2015,07,20,00,20,19.80
2015,07,20,00,21,19.80
2015,07,20,00,22,19.80
2015,07,20,00,23,19.70
2015,07,20,00,24,19.70
2015,07,20,00,25,19.70
2015,07,20,00,26,19.70
2015,07,20,00,27,19.60
2015,07,20,00,28,19.60
2015,07,20,00,29,19.60
2015,07,20,00,30,19.50
2015,07,20,00,31,19.60
2015,07,20,00,32,19.50
2015,07,20,00,33,19.50
2015,07,20,00,34,19.60
2015,07,20,00,35,19.60
2015,07,20,00,36,19.60
2015,07,20,00,37,19.60
2015,07,20,00,38,19.70
2015,07,20,00,39,19.70
2015,07,20,00,40,19.70
2015,07,20,00,41,19.80
2015,07,20,00,42,19.80
2015,07,20,00,43,19.90
2015,07,20,00,44,20.00
2015,07,20,00,45,20.00
2015,07,20,00,46,20.10
2015,07,20,00,47,20.20
2015,07,20,00,48,20.20
2015,07,20,00,49,20.20
2015,07,20,00,50,20.20
2015,07,20,00,51,20.30
2015,07,20,00,52,20.30
2015,07,20,00,53,20.30
2015,07,20,00,54,20.30
2015,07,20,00,55,20.30
2015,07,20,00,56,20.30
2015,07,20,00,57,20.30
2015,07,20,00,58,20.30
2015,07,20,00,59,20.30
2015,07,20,01,00,20.30
2015,07,20,01,01,20.20
2015,07,20,01,02,20.20
2015,07,20,01,03,20.20
2015,07,20,01,04,20.20
2015,07,20,01,05,20.20
2015,07,20,01,06,20.10
2015,07,20,01,07,20.10
2015,07,20,01,08,20.10
2015,07,20,01,09,20.10
2015,07,20,01,10,20.00
2015,07,20,01,11,20.00
2015,07,20,01,12,19.90
2015,07,20,01,13,19.90
2015,07,20,01,14,19.90
2015,07,20,01,15,19.80
2015,07,20,01,16,19.80
2015,07,20,01,17,19.80
2015,07,20,01,18,19.70
2015,07,20,01,19,19.70
2015,07,20,01,20,19.70
2015,07,20,01,21,19.60
2015,07,20,01,22,19.60
2015,07,20,01,23,19.60
2015,07,20,01,24,19.50
2015,07,20,01,25,19.50
2015,07,20,01,26,19.40
2015,07,20,01,27,19.40
2015,07,20,01,28,19.40
2015,07,20,01,29,19.40
2015,07,20,01,30,19.30
2015,07,20,01,31,19.30
2015,07,20,01,32,19.30
2015,07,20,01,33,19.30
2015,07,20,01,34,19.20
2015,07,20,01,35,19.20
2015,07,20,01,36,19.20
2015,07,20,01,37,19.20
2015,07,20,01,38,19.20
2015,07,20,01,39,19.10
2015,07,20,01,40,19.10
2015,07,20,01,41,19.10
2015,07,20,01,42,19.00
2015,07,20,01,43,19.00
2015,07,20,01,44,19.00
2015,07,20,01,45,18.90
2015,07,20,01,46,18.90
2015,07,20,01,47,18.90
2015,07,20,01,48,18.90
2015,07,20,01,49,18.80
2015,07,20,01,50,18.80
2015,07,20,01,51,18.80
2015,07,20,01,52,18.80
2015,07,20,01,53,18.80
2015,07,20,01,54,18.80
2015,07,20,01,55,18.80
2015,07,20,01,56,18.70
2015,07,20,01,57,18.70
2015,07,20,01,58,18.70
2015,07,20,01,59,18.70
2015,07,20,02,00,18.70
2015,07,20,02,01,18.70
2015,07,20,02,02,18.70
2015,07,20,02,03,18.60
2015,07,20,02,04,18.60
2015,07,20,02,05,18.60
2015,07,20,02,06,18.60
2015,07,20,02,07,18.50
2015,07,20,02,08,18.50
2015,07,20,02,09,18.50
2015,07,20,02,10,18.50
2015,07,20,02,11,18.50
2015,07,20,02,12,18.40
2015,07,20,02,13,18.40
2015,07,20,02,14,18.40
2015,07,20,02,15,18.40
2015,07,20,02,16,18.40
2015,07,20,02,17,18.40
2015,07,20,02,18,18.40
2015,07,20,02,19,18.30
2015,07,20,02,20,18.30
2015,07,20,02,21,18.30
2015,07,20,02,22,18.30
2015,07,20,02,23,18.20
2015,07,20,02,24,18.20
2015,07,20,02,25,18.20
2015,07,20,02,26,18.10
2015,07,20,02,27,18.10
2015,07,20,02,28,18.00
2015,07,20,02,29,18.00
2015,07,20,02,30,18.00
2015,07,20,02,31,17.90
2015,07,20,02,32,17.90
2015,07,20,02,33,17.90
2015,07,20,02,34,17.80
2015,07,20,02,35,17.80
2015,07,20,02,36,17.80
2015,07,20,02,37,17.80
2015,07,20,02,38,17.80
2015,07,20,02,39,17.80
2015,07,20,02,40,17.70
2015,07,20,02,41,17.70
2015,07,20,02,42,17.70
2015,07,20,02,43,17.70
2015,07,20,02,44,17.70
2015,07,20,02,45,17.70
2015,07,20,02,46,17.70
2015,07,20,02,47,17.70
2015,07,20,02,48,17.60
2015,07,20,02,49,17.60
2015,07,20,02,50,17.60
2015,07,20,02,51,17.60
2015,07,20,02,52,17.60
2015,07,20,02,53,17.60
2015,07,20,02,54,17.60
2015,07,20,02,55,17.60
2015,07,20,02,56,17.60
2015,07,20,02,57,17.60
2015,07,20,02,58,17.60
2015,07,20,02,59,17.60
2015,07,20,03,00,17.50
2015,07,20,03,01,17.50
2015,07,20,03,02,17.50
2015,07,20,03,03,17.50
2015,07,20,03,04,17.50
2015,07,20,03,05,17.40
2015,07,20,03,06,17.40
2015,07,20,03,07,17.40
2015,07,20,03,08,17.40
2015,07,20,03,09,17.40
2015,07,20,03,10,17.40
2015,07,20,03,11,17.40
2015,07,20,03,12,17.40
2015,07,20,03,13,17.30
2015,07,20,03,14,17.30
2015,07,20,03,15,17.20
2015,07,20,03,16,17.20
2015,07,20,03,17,17.20
2015,07,20,03,18,17.20
2015,07,20,03,19,17.10
2015,07,20,03,20,17.10
2015,07,20,03,21,17.10
2015,07,20,03,22,17.10
2015,07,20,03,23,17.10
2015,07,20,03,24,17.10
2015,07,20,03,25,17.00
2015,07,20,03,26,17.00
2015,07,20,03,27,17.00
2015,07,20,03,28,17.00
2015,07,20,03,29,17.10
2015,07,20,03,30,17.10
2015,07,20,03,31,17.10
2015,07,20,03,32,17.10
2015,07,20,03,33,17.10
2015,07,20,03,34,17.10
2015,07,20,03,35,17.20
2015,07,20,03,36,17.20
2015,07,20,03,37,17.20
2015,07,20,03,38,17.20
2015,07,20,03,39,17.20
2015,07,20,03,40,17.20
2015,07,20,03,41,17.20
2015,07,20,03,42,17.20
2015,07,20,03,43,17.20
2015,07,20,03,44,17.10
2015,07,20,03,45,17.10
2015,07,20,03,46,17.10
2015,07,20,03,47,17.10
2015,07,20,03,48,17.10
2015,07,20,03,49,17.10
2015,07,20,03,50,17.10
2015,07,20,03,51,17.10
2015,07,20,03,52,17.10
2015,07,20,03,53,17.10
2015,07,20,03,54,17.10
2015,07,20,03,55,17.10
2015,07,20,03,56,17.10
2015,07,20,03,57,17.10
2015,07,20,03,58,17.10
2015,07,20,03,59,17.10
2015,07,20,04,00,17.10
2015,07,20,04,01,17.10
2015,07,20,04,02,17.10
2015,07,20,04,03,17.10
2015,07,20,04,04,17.10
2015,07,20,04,05,17.10
2015,07,20,04,06,17.10
2015,07,20,04,07,17.10
2015,07,20,04,08,17.10
2015,07,20,04,09,17.10
2015,07,20,04,10,17.00
2015,07,20,04,11,17.00
2015,07,20,04,12,16.90
2015,07,20,04,13,16.80
2015,07,20,04,14,16.80
2015,07,20,04,15,16.80
2015,07,20,04,16,16.70
2015,07,20,04,17,16.70
2015,07,20,04,18,16.60
2015,07,20,04,19,16.60
2015,07,20,04,20,16.60
2015,07,20,04,21,16.60
2015,07,20,04,22,16.50
2015,07,20,04,23,16.50
2015,07,20,04,24,16.40
2015,07,20,04,25,16.40
2015,07,20,04,26,16.40
2015,07,20,04,27,16.30
2015,07,20,04,28,16.30
2015,07,20,04,29,16.30
2015,07,20,04,30,16.30
2015,07,20,04,31,16.20
2015,07,20,04,32,16.20
2015,07,20,04,33,16.10
2015,07,20,04,34,16.10
2015,07,20,04,35,16.00
2015,07,20,04,36,16.00
2015,07,20,04,37,15.90
2015,07,20,04,38,15.90
2015,07,20,04,39,15.90
2015,07,20,04,40,15.90
2015,07,20,04,41,15.80
2015,07,20,04,42,15.80
2015,07,20,04,43,15.80
2015,07,20,04,44,15.80
2015,07,20,04,45,15.80
2015,07,20,04,46,15.70
2015,07,20,04,47,15.70
2015,07,20,04,48,15.70
2015,07,20,04,49,15.70
2015,07,20,04,50,15.70
2015,07,20,04,51,15.60
2015,07,20,04,52,15.60
2015,07,20,04,53,15.60
2015,07,20,04,54,15.60
2015,07,20,04,55,15.60
2015,07,20,04,56,15.60
2015,07,20,04,57,15.60
2015,07,20,04,58,15.60
2015,07,20,04,59,15.50
2015,07,20,05,00,15.50
2015,07,20,05,01,15.50
2015,07,20,05,02,15.50
2015,07,20,05,03,15.50
2015,07,20,05,04,15.40
2015,07,20,05,05,15.40
2015,07,20,05,06,15.40
2015,07,20,05,07,15.40
2015,07,20,05,08,15.40
2015,07,20,05,09,15.30
2015,07,20,05,10,15.30
2015,07,20,05,11,15.30
2015,07,20,05,12,15.30
2015,07,20,05,13,15.30
2015,07,20,05,14,15.30
2015,07,20,05,15,15.40
2015,07,20,05,16,15.50
2015,07,20,05,17,15.50
2015,07,20,05,18,15.60
2015,07,20,05,19,15.60
2015,07,20,05,20,15.70
2015,07,20,05,21,15.70
2015,07,20,05,22,15.80
2015,07,20,05,23,15.80
2015,07,20,05,24,15.90
2015,07,20,05,25,15.90
2015,07,20,05,26,16.00
2015,07,20,05,27,16.10
2015,07,20,05,28,16.20
2015,07,20,05,29,16.20
2015,07,20,05,30,16.30
2015,07,20,05,31,16.30
2015,07,20,05,32,16.40
2015,07,20,05,33,16.50
2015,07,20,05,34,16.50
2015,07,20,05,35,16.60
2015,07,20,05,36,16.60
2015,07,20,05,37,16.60
2015,07,20,05,38,16.60
2015,07,20,05,39,16.60
2015,07,20,05,40,16.60
2015,07,20,05,41,16.60
2015,07,20,05,42,16.60
2015,07,20,05,43,16.60
2015,07,20,05,44,16.70
2015,07,20,05,45,16.70
2015,07,20,05,46,16.70
2015,07,20,05,47,16.70
2015,07,20,05,48,16.70
2015,07,20,05,49,16.70
2015,07,20,05,50,16.70
2015,07,20,05,51,16.60
2015,07,20,05,52,16.60
2015,07,20,05,53,16.60
2015,07,20,05,54,16.60
2015,07,20,05,55,16.60
2015,07,20,05,56,16.60
2015,07,20,05,57,16.60
2015,07,20,05,58,16.60
2015,07,20,05,59,16.60
2015,07,20,06,00,16.60
2015,07,20,06,01,16.60
2015,07,20,06,02,16.60
2015,07,20,06,03,16.60
2015,07,20,06,04,16.60
2015,07,20,06,05,16.70
2015,07,20,06,06,16.70
2015,07,20,06,07,16.70
2015,07,20,06,08,16.70
2015,07,20,06,09,16.70
2015,07,20,06,10,16.70
2015,07,20,06,11,16.80
2015,07,20,06,12,16.80
2015,07,20,06,13,16.80
2015,07,20,06,14,16.80
2015,07,20,06,15,16.80
2015,07,20,06,16,16.80
2015,07,20,06,17,16.80
2015,07,20,06,18,16.90
2015,07,20,06,19,16.90
2015,07,20,06,20,16.90
2015,07,20,06,21,16.90
2015,07,20,06,22,16.90
2015,07,20,06,23,16.90
2015,07,20,06,24,16.90
2015,07,20,06,25,16.90
2015,07,20,06,26,17.00
2015,07,20,06,27,17.00
2015,07,20,06,28,17.00
2015,07,20,06,29,17.10
2015,07,20,06,30,17.10
2015,07,20,06,31,17.10
2015,07,20,06,32,17.10
2015,07,20,06,33,17.10
2015,07,20,06,34,17.10
2015,07,20,06,35,17.20
2015,07,20,06,36,17.20
2015,07,20,06,37,17.10
2015,07,20,06,38,17.10
2015,07,20,06,39,17.10
2015,07,20,06,40,17.10
2015,07,20,06,41,17.10
2015,07,20,06,42,17.00
2015,07,20,06,43,17.00
2015,07,20,06,44,16.90
2015,07,20,06,45,16.90
2015,07,20,06,46,16.90
2015,07,20,06,47,16.80
2015,07,20,06,48,16.80
2015,07,20,06,49,16.80
2015,07,20,06,50,16.80
2015,07,20,06,51,16.70
2015,07,20,06,52,16.70
2015,07,20,06,53,16.70
2015,07,20,06,54,16.70
2015,07,20,06,55,16.70
2015,07,20,06,56,16.80
2015,07,20,06,57,16.80
2015,07,20,06,58,16.90
2015,07,20,06,59,16.90
2015,07,20,07,00,17.10
2015,07,20,07,01,17.10
2015,07,20,07,02,17.20
2015,07,20,07,03,17.30
2015,07,20,07,04,17.40
2015,07,20,07,05,17.50
2015,07,20,07,06,17.50
2015,07,20,07,07,17.60
2015,07,20,07,08,17.60
2015,07,20,07,09,17.70
2015,07,20,07,10,17.70
2015,07,20,07,11,17.70
2015,07,20,07,12,17.70
2015,07,20,07,13,17.70
2015,07,20,07,14,17.70
2015,07,20,07,15,17.70
2015,07,20,07,16,17.70
2015,07,20,07,17,17.70
2015,07,20,07,18,17.80
2015,07,20,07,19,17.80
2015,07,20,07,20,17.80
2015,07,20,07,21,17.90
2015,07,20,07,22,17.90
2015,07,20,07,23,17.90
2015,07,20,07,24,17.90
2015,07,20,07,25,17.90
2015,07,20,07,26,17.90
2015,07,20,07,27,17.90
2015,07,20,07,28,17.90
2015,07,20,07,29,17.90
2015,07,20,07,30,17.90
2015,07,20,07,31,17.90
2015,07,20,07,32,17.90
2015,07,20,07,33,17.90
2015,07,20,07,34,17.90
2015,07,20,07,35,17.90
2015,07,20,07,36,17.90
2015,07,20,07,37,17.90
2015,07,20,07,38,18.00
2015,07,20,07,39,18.00
2015,07,20,07,40,18.00
2015,07,20,07,41,18.00
2015,07,20,07,42,18.10
2015,07,20,07,43,18.10
2015,07,20,07,44,18.10
2015,07,20,07,45,18.10
2015,07,20,07,46,18.20
2015,07,20,07,47,18.20
2015,07,20,07,48,18.20
2015,07,20,07,49,18.30
2015,07,20,07,50,18.30
2015,07,20,07,51,18.30
2015,07,20,07,52,18.30
2015,07,20,07,53,18.30
2015,07,20,07,54,18.30
2015,07,20,07,55,18.20
2015,07,20,07,56,18.20
2015,07,20,07,57,18.20
2015,07,20,07,58,18.20
2015,07,20,07,59,18.30
2015,07,20,08,00,18.40
2015,07,20,08,01,18.40
2015,07,20,08,02,18.40
2015,07,20,08,03,18.40
2015,07,20,08,04,18.30
2015,07,20,08,05,18.30
2015,07,20,08,06,18.30
2015,07,20,08,07,18.30
2015,07,20,08,08,18.30
2015,07,20,08,09,18.30
2015,07,20,08,10,18.30
2015,07,20,08,11,18.30
2015,07,20,08,12,18.30
2015,07,20,08,13,18.40
2015,07,20,08,14,18.40
2015,07,20,08,15,18.50
2015,07,20,08,16,18.60
2015,07,20,08,17,18.60
2015,07,20,08,18,18.70
2015,07,20,08,19,18.70
2015,07,20,08,20,18.70
2015,07,20,08,21,18.70
2015,07,20,08,22,18.70
2015,07,20,08,23,18.70
2015,07,20,08,24,18.70
2015,07,20,08,25,18.70
2015,07,20,08,26,18.80
2015,07,20,08,27,18.80
2015,07,20,08,28,18.80
2015,07,20,08,29,18.80
2015,07,20,08,30,18.80
2015,07,20,08,31,18.80
2015,07,20,08,32,18.80
2015,07,20,08,33,18.90
2015,07,20,08,34,18.90
2015,07,20,08,35,18.90
2015,07,20,08,36,18.80
2015,07,20,08,37,18.80
2015,07,20,08,38,18.80
2015,07,20,08,39,18.80
2015,07,20,08,40,18.80
2015,07,20,08,41,18.70
2015,07,20,08,42,18.70
2015,07,20,08,43,18.70
2015,07,20,08,44,18.60
2015,07,20,08,45,18.60
2015,07,20,08,46,18.60
2015,07,20,08,47,18.60
2015,07,20,08,48,18.60
2015,07,20,08,49,18.50
2015,07,20,08,50,18.50
2015,07,20,08,51,18.50
2015,07,20,08,52,18.50
2015,07,20,08,53,18.50
2015,07,20,08,54,18.50
2015,07,20,08,55,18.50
2015,07,20,08,56,18.50
2015,07,20,08,57,18.60
2015,07,20,08,58,18.60
2015,07,20,08,59,18.60
2015,07,20,09,00,18.60
2015,07,20,09,01,18.50
2015,07,20,09,02,18.50
2015,07,20,09,03,18.50
2015,07,20,09,04,18.50
2015,07,20,09,05,18.60
2015,07,20,09,06,18.60
2015,07,20,09,07,18.70
2015,07,20,09,08,18.70
2015,07,20,09,09,18.70
2015,07,20,09,10,18.80
2015,07,20,09,11,18.90
2015,07,20,09,12,19.00
2015,07,20,09,13,19.00
2015,07,20,09,14,19.10
2015,07,20,09,15,19.10
2015,07,20,09,16,19.20
2015,07,20,09,17,19.30
2015,07,20,09,18,19.30
2015,07,20,09,19,19.30
2015,07,20,09,20,19.30
2015,07,20,09,21,19.20
2015,07,20,09,22,19.20
2015,07,20,09,23,19.20
2015,07,20,09,24,19.10
2015,07,20,09,25,19.00
2015,07,20,09,26,19.00
2015,07,20,09,27,19.00
2015,07,20,09,28,19.00
2015,07,20,09,29,19.10
2015,07,20,09,30,19.10
2015,07,20,09,31,19.20
2015,07,20,09,32,19.10
2015,07,20,09,33,19.10
2015,07,20,09,34,19.10
2015,07,20,09,35,19.20
2015,07,20,09,36,19.20
2015,07,20,09,37,19.20
2015,07,20,09,38,19.20
2015,07,20,09,39,19.20
2015,07,20,09,40,19.20
2015,07,20,09,41,19.20
2015,07,20,09,42,19.20
2015,07,20,09,43,19.30
2015,07,20,09,44,19.30
2015,07,20,09,45,19.20
2015,07,20,09,46,19.30
2015,07,20,09,47,19.30
2015,07,20,09,48,19.30
2015,07,20,09,49,19.30
2015,07,20,09,50,19.30
2015,07,20,09,51,19.20
2015,07,20,09,52,19.20
2015,07,20,09,53,19.20
2015,07,20,09,54,19.20
2015,07,20,09,55,19.20
2015,07,20,09,56,19.20
2015,07,20,09,57,19.20
2015,07,20,09,58,19.30
2015,07,20,09,59,19.30
2015,07,20,10,00,19.30
2015,07,20,10,01,19.30
2015,07,20,10,02,19.20
2015,07,20,10,03,19.20
2015,07,20,10,04,19.20
2015,07,20,10,05,19.30
2015,07,20,10,06,19.50
2015,07,20,10,07,19.60
2015,07,20,10,08,19.60
2015,07,20,10,09,19.70
2015,07,20,10,10,19.60
2015,07,20,10,11,19.70
2015,07,20,10,12,19.70
2015,07,20,10,13,19.70
2015,07,20,10,14,19.80
2015,07,20,10,15,19.80
2015,07,20,10,16,19.80
2015,07,20,10,17,19.80
2015,07,20,10,18,19.70
2015,07,20,10,19,19.70
2015,07,20,10,20,19.80
2015,07,20,10,21,19.90
2015,07,20,10,22,20.00
2015,07,20,10,23,20.10
2015,07,20,10,24,20.10
2015,07,20,10,25,20.20
2015,07,20,10,26,20.20
2015,07,20,10,27,20.10
2015,07,20,10,28,20.10
2015,07,20,10,29,20.10
2015,07,20,10,30,20.20
2015,07,20,10,31,20.20
2015,07,20,10,32,20.20
2015,07,20,10,33,20.20
2015,07,20,10,34,20.20
2015,07,20,10,35,20.20
2015,07,20,10,36,20.20
2015,07,20,10,37,20.20
2015,07,20,10,38,20.20
2015,07,20,10,39,20.10
2015,07,20,10,40,20.10
2015,07,20,10,41,20.10
2015,07,20,10,42,20.10
2015,07,20,10,43,20.20
2015,07,20,10,44,20.30
2015,07,20,10,45,20.30
2015,07,20,10,46,20.30
2015,07,20,10,47,20.30
2015,07,20,10,48,20.40
2015,07,20,10,49,20.40
2015,07,20,10,50,20.50
2015,07,20,10,51,20.60
2015,07,20,10,52,20.60
2015,07,20,10,53,20.70
2015,07,20,10,54,20.70
2015,07,20,10,55,20.70
2015,07,20,10,56,20.60
2015,07,20,10,57,20.50
2015,07,20,10,58,20.40
2015,07,20,10,59,20.20
2015,07,20,11,00,20.10
2015,07,20,11,01,20.10
2015,07,20,11,02,20.10
2015,07,20,11,03,20.30
2015,07,20,11,04,20.40
2015,07,20,11,05,20.40
2015,07,20,11,06,20.50
2015,07,20,11,07,20.60
2015,07,20,11,08,20.60
2015,07,20,11,09,20.70
2015,07,20,11,10,20.70
2015,07,20,11,11,20.70
2015,07,20,11,12,20.70
2015,07,20,11,13,20.80
2015,07,20,11,14,20.80
2015,07,20,11,15,20.80
2015,07,20,11,16,20.80
2015,07,20,11,17,20.80
2015,07,20,11,18,20.80
2015,07,20,11,19,20.80
2015,07,20,11,20,20.80
2015,07,20,11,21,20.80
2015,07,20,11,22,20.80
2015,07,20,11,23,20.90
2015,07,20,11,24,21.00
2015,07,20,11,25,20.90
2015,07,20,11,26,20.90
2015,07,20,11,27,20.90
2015,07,20,11,28,20.90
2015,07,20,11,29,20.90
2015,07,20,11,30,21.00
2015,07,20,11,31,21.10
2015,07,20,11,32,21.20
2015,07,20,11,33,21.20
2015,07,20,11,34,21.30
2015,07,20,11,35,21.40
2015,07,20,11,36,21.50
2015,07,20,11,37,21.60
2015,07,20,11,38,21.80
2015,07,20,11,39,21.90
2015,07,20,11,40,22.00
2015,07,20,11,41,22.00
2015,07,20,11,42,22.10
2015,07,20,11,43,22.10
2015,07,20,11,44,22.10
2015,07,20,11,45,22.10
2015,07,20,11,46,22.10
2015,07,20,11,47,22.10
2015,07,20,11,48,22.10
2015,07,20,11,49,22.20
2015,07,20,11,50,22.20
2015,07,20,11,51,22.20
2015,07,20,11,52,22.20
2015,07,20,11,53,22.20
2015,07,20,11,54,22.10
2015,07,20,11,55,22.10
2015,07,20,11,56,22.10
2015,07,20,11,57,22.10
2015,07,20,11,58,22.10
2015,07,20,11,59,22.20
2015,07,20,12,00,22.30
2015,07,20,12,01,22.30
2015,07,20,12,02,22.20
2015,07,20,12,03,22.00
2015,07,20,12,04,21.90
2015,07,20,12,05,21.90
2015,07,20,12,06,22.10
2015,07,20,12,07,22.10
2015,07,20,12,08,22.20
2015,07,20,12,09,22.40
2015,07,20,12,10,22.40
2015,07,20,12,11,22.40
2015,07,20,12,12,22.40
2015,07,20,12,13,22.50
2015,07,20,12,14,22.50
2015,07,20,12,15,22.40
2015,07,20,12,16,22.30
2015,07,20,12,17,22.30
2015,07,20,12,18,22.40
2015,07,20,12,19,22.50
2015,07,20,12,20,22.50
2015,07,20,12,21,22.60
2015,07,20,12,22,22.70
2015,07,20,12,23,22.80
2015,07,20,12,24,22.90
2015,07,20,12,25,23.10
2015,07,20,12,26,23.20
2015,07,20,12,27,23.30
2015,07,20,12,28,23.30
2015,07,20,12,29,23.20
2015,07,20,12,30,23.30
2015,07,20,12,31,23.40
2015,07,20,12,32,23.50
2015,07,20,12,33,23.60
2015,07,20,12,34,23.70
2015,07,20,12,35,23.80
2015,07,20,12,36,23.90
2015,07,20,12,37,23.90
2015,07,20,12,38,23.90
2015,07,20,12,39,23.80
2015,07,20,12,40,23.80
2015,07,20,12,41,23.80
2015,07,20,12,42,23.80
2015,07,20,12,43,23.80
2015,07,20,12,44,23.70
2015,07,20,12,45,23.80
2015,07,20,12,46,23.80
2015,07,20,12,47,23.80
2015,07,20,12,48,23.90
2015,07,20,12,49,23.90
2015,07,20,12,50,23.90
2015,07,20,12,51,23.90
2015,07,20,12,52,23.90
2015,07,20,12,53,24.10
2015,07,20,12,54,24.20
2015,07,20,12,55,24.30
2015,07,20,12,56,24.30
2015,07,20,12,57,24.30
2015,07,20,12,58,24.40
2015,07,20,12,59,24.40
2015,07,20,13,00,24.40
2015,07,20,13,01,24.40
2015,07,20,13,02,24.50
2015,07,20,13,03,24.70
2015,07,20,13,04,24.80
2015,07,20,13,05,24.80
2015,07,20,13,06,24.80
2015,07,20,13,07,24.60
2015,07,20,13,08,24.60
2015,07,20,13,09,24.60
2015,07,20,13,10,24.70
2015,07,20,13,11,24.70
2015,07,20,13,12,24.80
2015,07,20,13,13,24.90
2015,07,20,13,14,24.90
2015,07,20,13,15,25.10
2015,07,20,13,16,25.20
2015,07,20,13,17,25.40
2015,07,20,13,18,25.50
2015,07,20,13,19,25.60
2015,07,20,13,20,25.50
2015,07,20,13,21,25.40
2015,07,20,13,22,25.30
2015,07,20,13,23,25.30
2015,07,20,13,24,25.30
2015,07,20,13,25,25.30
2015,07,20,13,26,25.30
2015,07,20,13,27,25.20
2015,07,20,13,28,25.20
2015,07,20,13,29,25.10
2015,07,20,13,30,25.00
2015,07,20,13,31,24.80
2015,07,20,13,32,24.80
2015,07,20,13,33,24.80
2015,07,20,13,34,24.70
2015,07,20,13,35,24.60
2015,07,20,13,36,24.60
2015,07,20,13,37,24.60
2015,07,20,13,38,24.60
2015,07,20,13,39,24.70
2015,07,20,13,40,24.70
2015,07,20,13,41,24.70
2015,07,20,13,42,24.80
2015,07,20,13,43,25.00
2015,07,20,13,44,25.10
2015,07,20,13,45,25.10
2015,07,20,13,46,25.10
2015,07,20,13,47,24.90
2015,07,20,13,48,24.90
2015,07,20,13,49,24.90
2015,07,20,13,50,24.90
2015,07,20,13,51,24.90
2015,07,20,13,52,25.00
2015,07,20,13,53,25.10
2015,07,20,13,54,25.20
2015,07,20,13,55,25.00
2015,07,20,13,56,24.80
2015,07,20,13,57,24.70
2015,07,20,13,58,24.80
2015,07,20,13,59,24.90
2015,07,20,14,00,25.00
2015,07,20,14,01,25.10
2015,07,20,14,02,25.00
2015,07,20,14,03,25.00
2015,07,20,14,04,25.10
2015,07,20,14,05,25.10
2015,07,20,14,06,25.10
2015,07,20,14,07,25.20
2015,07,20,14,08,25.20
2015,07,20,14,09,25.30
2015,07,20,14,10,25.30
2015,07,20,14,11,25.50
2015,07,20,14,12,25.60
2015,07,20,14,13,25.70
2015,07,20,14,14,25.80
2015,07,20,14,15,26.00
2015,07,20,14,16,26.20
2015,07,20,14,17,26.20
2015,07,20,14,18,26.10
2015,07,20,14,19,25.90
2015,07,20,14,20,25.90
2015,07,20,14,21,26.00
2015,07,20,14,22,26.10
2015,07,20,14,23,26.20
2015,07,20,14,24,26.20
2015,07,20,14,25,26.00
2015,07,20,14,26,25.90
2015,07,20,14,27,25.90
2015,07,20,14,28,25.90
2015,07,20,14,29,25.80
2015,07,20,14,30,25.90
2015,07,20,14,31,25.90
2015,07,20,14,32,26.00
2015,07,20,14,33,26.10
2015,07,20,14,34,26.10
2015,07,20,14,35,26.10
2015,07,20,14,36,26.10
2015,07,20,14,37,26.10
2015,07,20,14,38,26.10
2015,07,20,14,39,26.10
2015,07,20,14,40,26.20
2015,07,20,14,41,26.20
2015,07,20,14,42,26.30
2015,07,20,14,43,26.30
2015,07,20,14,44,26.30
2015,07,20,14,45,26.30
2015,07,20,14,46,26.40
2015,07,20,14,47,26.40
2015,07,20,14,48,26.30
2015,07,20,14,49,26.30
2015,07,20,14,50,26.40
2015,07,20,14,51,26.50
2015,07,20,14,52,26.70
2015,07,20,14,53,26.80
2015,07,20,14,54,26.90
2015,07,20,14,55,26.90
2015,07,20,14,56,26.90
2015,07,20,14,57,26.80
2015,07,20,14,58,26.80
2015,07,20,14,59,26.90
2015,07,20,15,00,27.00
2015,07,20,15,01,27.10
2015,07,20,15,02,27.10
2015,07,20,15,03,27.00
2015,07,20,15,04,26.80
2015,07,20,15,05,26.70
2015,07,20,15,06,26.50
2015,07,20,15,07,26.40
2015,07,20,15,08,26.40
2015,07,20,15,09,26.40
2015,07,20,15,10,26.40
2015,07,20,15,11,26.40
2015,07,20,15,12,26.30
2015,07,20,15,13,26.30
2015,07,20,15,14,26.30
2015,07,20,15,15,26.30
2015,07,20,15,16,26.40
2015,07,20,15,17,26.50
2015,07,20,15,18,26.60
2015,07,20,15,19,26.70
2015,07,20,15,20,26.70
2015,07,20,15,21,26.80
2015,07,20,15,22,26.80
2015,07,20,15,23,26.80
2015,07,20,15,24,26.80
2015,07,20,15,25,26.80
2015,07,20,15,26,26.80
2015,07,20,15,27,26.80
2015,07,20,15,28,26.80
2015,07,20,15,29,26.80
2015,07,20,15,30,26.80
2015,07,20,15,31,26.70
2015,07,20,15,32,26.70
2015,07,20,15,33,26.70
2015,07,20,15,34,26.70
2015,07,20,15,35,26.70
2015,07,20,15,36,26.80
2015,07,20,15,37,26.90
2015,07,20,15,38,27.00
2015,07,20,15,39,27.10
2015,07,20,15,40,27.20
2015,07,20,15,41,27.30
2015,07,20,15,42,27.20
2015,07,20,15,43,27.20
2015,07,20,15,44,27.20
2015,07,20,15,45,27.20
2015,07,20,15,46,27.20
2015,07,20,15,47,27.20
2015,07,20,15,48,27.30
2015,07,20,15,49,27.30
2015,07,20,15,50,27.10
2015,07,20,15,51,27.00
2015,07,20,15,52,26.80
2015,07,20,15,53,26.70
2015,07,20,15,54,26.70
2015,07,20,15,55,26.50
2015,07,20,15,56,26.30
2015,07,20,15,57,26.20
2015,07,20,15,58,26.10
2015,07,20,15,59,26.00
2015,07,20,16,00,26.00
2015,07,20,16,01,26.00
2015,07,20,16,02,26.10
2015,07,20,16,03,26.10
2015,07,20,16,04,26.30
2015,07,20,16,05,26.40
2015,07,20,16,06,26.50
2015,07,20,16,07,26.40
2015,07,20,16,08,26.50
2015,07,20,16,09,26.50
2015,07,20,16,10,26.50
2015,07,20,16,11,26.50
2015,07,20,16,12,26.50
2015,07,20,16,13,26.40
2015,07,20,16,14,26.30
2015,07,20,16,15,26.20
2015,07,20,16,16,26.10
2015,07,20,16,17,26.00
2015,07,20,16,18,25.90
2015,07,20,16,19,25.80
2015,07,20,16,20,25.70
2015,07,20,16,21,25.70
2015,07,20,16,22,25.70
2015,07,20,16,23,25.70
2015,07,20,16,24,25.60
2015,07,20,16,25,25.50
2015,07,20,16,26,25.60
2015,07,20,16,27,25.50
2015,07,20,16,28,25.40
2015,07,20,16,29,25.40
2015,07,20,16,30,25.40
2015,07,20,16,31,25.40
2015,07,20,16,32,25.40
2015,07,20,16,33,25.30
2015,07,20,16,34,25.30
2015,07,20,16,35,25.40
2015,07,20,16,36,25.30
2015,07,20,16,37,25.20
2015,07,20,16,38,25.10
2015,07,20,16,39,25.00
2015,07,20,16,40,24.90
2015,07,20,16,41,24.90
2015,07,20,16,42,24.90
2015,07,20,16,43,24.90
2015,07,20,16,44,24.90
2015,07,20,16,45,24.90
2015,07,20,16,46,24.80
2015,07,20,16,47,24.80
2015,07,20,16,48,24.80
2015,07,20,16,49,24.80
2015,07,20,16,50,24.90
2015,07,20,16,51,24.90
2015,07,20,16,52,24.80
2015,07,20,16,53,24.80
2015,07,20,16,54,24.80
2015,07,20,16,55,24.80
2015,07,20,16,56,24.70
2015,07,20,16,57,24.70
2015,07,20,16,58,24.60
2015,07,20,16,59,24.60
2015,07,20,17,00,24.60
2015,07,20,17,01,24.50
2015,07,20,17,02,24.50
2015,07,20,17,03,24.60
2015,07,20,17,04,24.70
2015,07,20,17,05,24.70
2015,07,20,17,06,24.70
2015,07,20,17,07,24.70
2015,07,20,17,08,24.60
2015,07,20,17,09,24.60
2015,07,20,17,10,24.60
2015,07,20,17,11,24.60
2015,07,20,17,12,24.60
2015,07,20,17,13,24.60
2015,07,20,17,14,24.60
2015,07,20,17,15,24.60
2015,07,20,17,16,24.60
2015,07,20,17,17,24.60
2015,07,20,17,18,24.60
2015,07,20,17,19,24.60